Tracking 23726 objects as of 24-Sep-2021
HD Live streaming from Space Station
objects crossing your sky now

STARLINK-2108

Track STARLINK-2108 now!
10-day predictions
STARLINK-2108 is classified as:


NORAD ID: 47387
Int'l Code: 2021-005AQ
Perigee: 553.0 km
Apogee: 555.8 km
Inclination: 53.1 °
Period: 95.6 minutes
Semi major axis: 6925 km
RCS: Unknown
Launch date: January 20, 2021
Source: United States (US)
Launch site: AIR FORCE EASTERN TEST RANGE (AFETR)
aabbcc
Your satellite tracking list
Your tracking list is empty




NASA's NSSDC Master Catalog

Two Line Element Set (TLE):
1 47387U 21005AQ  21267.10335076  .00000416  00000-0  46859-4 0  9997
2 47387  53.0556 168.1359 0002016  71.7379 288.3829 15.06395629 37726
Source of the keplerian elements: AFSPC